CET,Max TemperatureF,Mean TemperatureF,Min TemperatureF,Max Dew PointF,MeanDew PointF,Min DewpointF,Max Humidity, Mean Humidity, Min Humidity, Max Sea Level PressureIn, Mean Sea Level PressureIn, Min Sea Level PressureIn, Max VisibilityMiles, Mean VisibilityMiles, Min VisibilityMiles, Max Wind SpeedMPH, Mean Wind SpeedMPH, Max Gust SpeedMPH,PrecipitationIn, CloudCover, Events, WindDirDegrees
2011-10-1,71,60,48,52,48,46,100,65,43,30.39,30.38,30.36,6,6,6,9,3,,0.00,,Fog,107
2011-10-2,73,58,44,54,46,43,100,63,33,30.39,30.32,30.27,6,6,6,5,2,,0.00,,Fog,100
2011-10-3,71,58,44,52,48,41,93,67,46,30.27,30.22,30.18,6,6,6,10,3,,0.00,,Fog,255
2011-10-4,69,58,48,54,51,48,100,73,46,30.21,30.17,30.15,6,5,3,13,4,,0.00,,Fog,271
2011-10-5,60,58,55,54,51,48,88,79,72,30.21,30.16,30.12,6,6,6,14,6,,0.00,6,Rain,262
2011-10-6,66,56,46,52,48,43,93,69,56,30.12,29.90,29.74,6,6,6,17,8,33,0.00,4,Rain,246
2011-10-7,48,45,42,45,39,36,93,82,62,29.80,29.79,29.77,6,6,6,14,8,23,0.00,4,Rain,266
2011-10-8,44,40,37,41,38,36,93,88,76,29.89,29.82,29.77,6,6,6,20,10,28,0.00,5,Rain,280
2011-10-9,48,40,32,37,34,30,100,77,54,30.18,30.10,29.89,6,6,6,10,7,,0.00,3,Rain,282
2011-10-10,57,45,33,54,47,34,100,94,87,30.12,29.99,29.95,6,5,1,14,8,29,0.00,6,Rain,272
2011-10-11,55,53,51,52,50,48,94,88,77,30.04,30.00,29.98,6,6,2,21,14,34,0.00,7,Rain,266
2011-10-12,53,48,42,52,45,41,100,94,81,30.12,30.04,29.95,6,6,2,20,10,34,0.00,6,Rain,277
2011-10-13,48,42,35,41,37,32,100,81,57,30.42,30.29,30.12,6,6,2,12,3,,0.00,5,Rain,325
2011-10-14,44,36,28,36,31,28,100,81,57,30.54,30.48,30.42,6,5,0,9,3,,0.00,3,Fog,97
2011-10-15,48,37,26,34,29,25,100,73,50,30.54,30.46,30.42,,,,12,5,,0.00,,,111
2011-10-16,48,40,32,36,33,28,93,75,57,30.42,30.37,30.30,,,,12,5,,0.00,,,111
2011-10-17,53,40,26,36,32,25,93,73,47,30.30,30.21,30.12,6,6,6,6,2,,0.00,1,,117
2011-10-18,62,48,35,46,41,34,100,78,45,30.12,29.96,29.83,6,3,0,10,3,18,0.00,5,Fog,246
2011-10-19,48,42,37,43,38,36,93,90,82,30.06,29.96,29.89,6,6,6,8,5,,0.00,6,Rain,268
2011-10-20,44,38,28,36,34,28,100,84,61,30.30,30.18,30.06,6,6,6,15,8,,0.00,5,Fog-Rain-Hail,273
2011-10-21,42,34,26,39,30,27,100,90,61,30.36,30.34,30.30,6,3,0,5,2,,0.00,2,Fog,101
2011-10-22,41,32,23,32,29,21,100,87,61,30.33,30.28,30.21,6,4,0,12,4,,0.00,3,Fog,116
2011-10-23,41,32,24,37,32,25,100,93,81,30.21,30.16,30.09,6,3,0,13,4,,0.00,5,Fog,102
2011-10-24,50,46,41,43,40,37,93,82,71,30.09,29.99,29.92,6,6,6,21,15,32,0.00,6,,117
2011-10-25,46,44,42,43,40,39,93,84,81,29.92,29.81,29.77,6,6,4,20,15,33,0.00,6,Rain,108
2011-10-26,48,46,44,46,46,43,100,97,93,30.09,29.99,29.80,4,2,0,7,3,,0.00,7,Fog-Rain,83
2011-10-27,46,44,42,46,44,43,100,99,93,30.12,30.07,30.04,3,1,0,12,5,,0.00,6,Fog,103
2011-10-28,51,46,37,45,43,37,100,90,71,30.33,30.24,30.12,6,4,2,7,2,,0.00,7,,280
2011-10-29,55,45,35,52,43,36,100,95,72,30.36,30.32,30.27,6,1,0,8,3,,0.00,5,Fog,121
2011-10-30,48,44,39,45,43,39,100,92,82,30.27,30.22,30.21,6,3,1,6,2,,0.00,7,Fog-Rain,294
2011-10-31,53,45,37,50,45,37,100,95,82,30.21,30.16,30.12,6,3,0,7,2,,0.00,6,Fog,117